Location: Unspecified
(0.0000°N, 0.0000°E)
Time: 13:14:56
(UTC+00:00)

Vanguard 3 - Pass Details

Date: 07 December 2025
Orbit: 507 x 3207 km, 33.3° (Epoch: 22 January)

Event Time Altitude Azimuth Distance (km) Brightness Sun altitude
Rises 11:31:18 0° 244° (WSW) 6,616 11.9 66.8°
Reaches altitude 10° 11:36:26 10° 248° (WSW) 5,248 11.5 67.0°
Maximum altitude 11:49:54 51° 319° (NW) 2,065 9.7 67.3°
Drops below altitude 10° 11:57:37 10° 34° (NE) 3,086 10.0 67.3°
Sets 11:59:54 0° 40° (NE) 3,775 10.4 67.2°
